{"data":{"norad_id":56002,"intl_designator":"2023-042S","name":"STARLINK-5799","alt_names":[],"object_type":"PAYLOAD","status":"ACTIVE","operator":null,"country":"US","launch_date":"2023-03-24","launch_site_code":"AFETR","launch_vehicle":null,"mission":null,"orbit_class":"UNKNOWN","rcs_meters":null,"size_class":null,"mass_kg":null,"dimensions":null,"purposes":["comms"],"wikipedia_slug":null,"has_3d_model":false,"image_url":null,"decayed_at":null,"tle_current":{"epoch":"2026-09-20T19:43:11.069760Z","epoch_age_seconds":78370,"freshness":"FRESH","line1":"1 56002U 23042S   26263.82165590 -.00001709  00000+0 -52603-4 0  9997","line2":"2 56002  43.0054  37.4865 0001577 270.4702  89.5968 15.27561401192713","mean_motion":15.27561401,"eccentricity":0.0001577,"inclination_deg":43.0054,"raan_deg":37.4865,"arg_perigee_deg":270.4702,"mean_anomaly_deg":89.5968,"bstar":-5.2603e-5,"rev_number":19271,"period_min":94.267896469322,"perigee_km":482.0227708716,"apogee_km":484.18680653176,"semimajor_km":6861.2417887017,"source":"CELESTRAK","updated_at":"2026-09-21T09:00:33.352185Z"}}}